Weather History for KCVX - May, 2014

Change the Weather History Date:

Friday, May 30, 2014

  Actual Average Record
Temperature  
Mean Temperature 60 °F -  
Max Temperature 73 °F 61 °F 86 °F (2013)
Min Temperature 47 °F 47 °F 39 °F (2001)
Degree Days  
Heating Degree Days 5    
Growing Degree Days 10 (Base 50)    
Moisture  
Dew Point 51 °F    
Average Humidity 73    
Maximum Humidity 95    
Minimum Humidity 41    
Precipitation  
Precipitation 0.00 in - - ()
Sea Level Pressure  
Sea Level Pressure 30.22 in    
Wind  
Wind Speed 2 mph (WNW)    
Max Wind Speed 9 mph    
Max Gust Speed -    
Visibility 10 miles    
Events      
Averages and records for this station are not official NWS values.
T = Trace of Precipitation, MM = Missing Value Source: NWS Daily Summary

Daily Weather History Graph

Daily Weather History Graph

Search for Another Location

Airport or City:

Trip Planner

Search our weather history database for the weather conditions in past years. The results will help you decide how hot, cold, wet, or windy it might be!

Date:

Astronomy

May. 30, 2014 Rise Set
Actual Time 5:57 AM EDT 9:20 PM EDT
Civil Twilight 5:21 AM EDT 9:56 PM EDT
Nautical Twilight 4:33 AM EDT 10:44 PM EDT
Astronomical Twilight 3:33 AM EDT 11:45 PM EDT
Moon 7:44 AM EDT (5/30) 10:52 PM EDT (5/30)
Length of Visible Light 16h 35m
Length of Day
15h 22m
Waxing Crescent, 4% of the Moon is Illuminated
May 30
Waxing Crescent
Jun 5
First Quarter
Jun 13
Full
Jun 19
Last Quarter
Jun 27
New

Hourly Weather History & Observations

Time (EDT) Temp. Dew Point Humidity Pressure Visibility Wind Dir Wind Speed Gust Speed Precip Events Conditions
12:15 AM 54.7 °F 50.2 °F 85% 30.18 in 10.0 mi Calm Calm - N/A   Clear
12:34 AM 51.8 °F 47.3 °F 85% 30.18 in 10.0 mi Calm Calm - N/A   Clear
12:55 AM 53.2 °F 49.6 °F 88% 30.17 in 10.0 mi Calm Calm - N/A   Clear
1:15 AM 53.2 °F 50.2 °F 89% 30.17 in 10.0 mi Calm Calm - N/A   Clear
1:34 AM 52.7 °F 50.4 °F 92% 30.17 in 10.0 mi Calm Calm - N/A   Clear
1:55 AM 52.7 °F 50.0 °F 91% 30.17 in 10.0 mi Calm Calm - N/A   Clear
2:15 AM 52.3 °F 49.8 °F 91% 30.18 in 10.0 mi Calm Calm - N/A   Clear
2:34 AM 49.6 °F 47.1 °F 91% 30.18 in 10.0 mi Calm Calm - N/A   Clear
2:55 AM 50.2 °F 47.5 °F 90% 30.18 in 10.0 mi Calm Calm - N/A   Clear
3:15 AM 49.1 °F 46.8 °F 92% 30.19 in 10.0 mi Calm Calm - N/A   Clear
3:34 AM 49.3 °F 46.8 °F 91% 30.18 in 10.0 mi Calm Calm - N/A   Clear
3:55 AM 48.4 °F 46.2 °F 92% 30.19 in 10.0 mi Calm Calm - N/A   Clear
4:15 AM 47.7 °F 45.7 °F 93% 30.20 in 10.0 mi Calm Calm - N/A   Clear
4:35 AM 47.5 °F 45.7 °F 93% 30.20 in 10.0 mi Calm Calm - N/A   Clear
5:14 AM 48.2 °F 46.8 °F 95% 30.21 in 10.0 mi Calm Calm - N/A   Clear
5:35 AM 49.1 °F 47.5 °F 94% 30.22 in 10.0 mi Calm Calm - N/A   Clear
5:55 AM 50.2 °F 48.4 °F 94% 30.22 in 10.0 mi Calm Calm - N/A   Clear
6:14 AM 50.9 °F 49.3 °F 94% 30.22 in 10.0 mi Calm Calm - N/A   Clear
6:35 AM 51.3 °F 50.0 °F 95% 30.22 in 10.0 mi Calm Calm - N/A   Clear
6:55 AM 52.5 °F 50.9 °F 94% 30.23 in 10.0 mi Calm Calm - N/A   Clear
7:14 AM 54.1 °F 52.5 °F 94% 30.23 in 10.0 mi Calm Calm - N/A   Clear
7:35 AM 56.1 °F 53.1 °F 89% 30.24 in 10.0 mi East 3.5 mph - N/A   Clear
7:55 AM 55.9 °F 52.9 °F 89% 30.24 in 10.0 mi East 3.5 mph - N/A   Clear
8:15 AM 57.6 °F 54.1 °F 88% 30.24 in 10.0 mi SE 3.5 mph - N/A   Clear
8:35 AM 60.4 °F 55.9 °F 85% 30.24 in 10.0 mi Calm Calm - N/A   Clear
8:54 AM 64.4 °F 56.5 °F 75% 30.24 in 10.0 mi West 3.5 mph - N/A   Clear
9:15 AM 58.6 °F 50.9 °F 75% 30.25 in 10.0 mi North 3.5 mph - N/A   Clear
9:35 AM 55.8 °F 48.4 °F 76% 30.25 in 10.0 mi North 3.5 mph - N/A   Clear
9:54 AM 58.5 °F 49.8 °F 73% 30.25 in 10.0 mi Calm Calm - N/A   Clear
10:15 AM 66.6 °F 53.2 °F 62% 30.25 in 10.0 mi West 5.8 mph - N/A   Clear
10:35 AM 68.7 °F 53.8 °F 59% 30.25 in 10.0 mi WNW 5.8 mph - N/A   Clear
10:54 AM 70.3 °F 53.8 °F 56% 30.25 in 10.0 mi West 4.6 mph - N/A   Clear
11:15 AM 72.5 °F 54.5 °F 53% 30.25 in 10.0 mi WNW 4.6 mph - N/A   Clear
11:35 AM 72.3 °F 54.5 °F 53% 30.24 in 10.0 mi WNW 4.6 mph - N/A   Clear
11:55 AM 73.6 °F 53.2 °F 49% 30.24 in 10.0 mi WNW 4.6 mph - N/A   Clear
12:15 PM 73.4 °F 53.6 °F 50% 30.24 in 10.0 mi WNW 5.8 mph - N/A   Clear
12:35 PM 72.3 °F 53.4 °F 51% 30.24 in 10.0 mi WNW 8.1 mph - N/A   Clear
12:54 PM 70.9 °F 53.6 °F 54% 30.25 in 10.0 mi West 8.1 mph - N/A   Clear
1:15 PM 70.3 °F 53.1 °F 54% 30.25 in 10.0 mi West 8.1 mph - N/A   Clear
1:35 PM 70.0 °F 53.2 °F 55% 30.25 in 10.0 mi WNW 8.1 mph - N/A   Clear
2:15 PM 67.5 °F 52.7 °F 59% 30.24 in 10.0 mi WNW 8.1 mph - N/A   Clear
2:35 PM 68.7 °F 53.1 °F 57% 30.24 in 10.0 mi WNW 8.1 mph - N/A   Clear
2:54 PM 69.1 °F 53.2 °F 57% 30.24 in 10.0 mi WNW 9.2 mph - N/A   Clear
3:15 PM 67.3 °F 52.3 °F 59% 30.24 in 10.0 mi West 8.1 mph - N/A   Clear
3:34 PM 67.6 °F 52.5 °F 58% 30.24 in 10.0 mi WNW 5.8 mph - N/A   Clear
3:55 PM 69.8 °F 53.6 °F 56% 30.23 in 10.0 mi West 5.8 mph - N/A   Clear
4:15 PM 70.5 °F 52.5 °F 53% 30.23 in 10.0 mi West 6.9 mph - N/A   Clear
4:34 PM 72.0 °F 51.4 °F 48% 30.23 in 10.0 mi WNW 6.9 mph - N/A   Clear
5:14 PM 72.3 °F 49.3 °F 44% 30.22 in 10.0 mi West 8.1 mph - N/A   Clear
5:35 PM 72.7 °F 47.7 °F 41% 30.22 in 10.0 mi West 8.1 mph - N/A   Clear
6:14 PM 70.2 °F 50.5 °F 50% 30.22 in 10.0 mi NNW 4.6 mph - N/A   Clear
6:35 PM 66.9 °F 50.7 °F 56% 30.22 in 10.0 mi NW 4.6 mph - N/A   Clear
6:55 PM 62.8 °F 51.3 °F 66% 30.21 in 10.0 mi Calm Calm - N/A   Clear
7:14 PM 67.1 °F 52.0 °F 58% 30.21 in 10.0 mi West 3.5 mph - N/A   Clear
7:35 PM 68.2 °F 51.1 °F 54% 30.21 in 10.0 mi Calm Calm - N/A   Clear
7:55 PM 67.3 °F 51.8 °F 58% 30.21 in 10.0 mi Calm Calm - N/A   Clear
8:14 PM 64.4 °F 51.8 °F 64% 30.21 in 10.0 mi Calm Calm - N/A   Clear
8:35 PM 61.7 °F 50.5 °F 67% 30.21 in 10.0 mi NNW 3.5 mph - N/A   Clear
8:54 PM 60.4 °F 50.2 °F 69% 30.21 in 10.0 mi Calm Calm - N/A   Clear
9:15 PM 57.4 °F 49.1 °F 74% 30.21 in 10.0 mi Calm Calm - N/A   Clear
9:35 PM 57.4 °F 49.5 °F 75% 30.21 in 10.0 mi Calm Calm - N/A   Clear
9:54 PM 59.2 °F 50.4 °F 73% 30.22 in 10.0 mi Calm Calm - N/A   Clear
10:15 PM 55.4 °F 49.1 °F 79% 30.22 in 10.0 mi NNW 3.5 mph - N/A   Clear
10:35 PM 52.2 °F 48.2 °F 86% 30.23 in 10.0 mi Calm Calm - N/A   Clear
10:54 PM 52.0 °F 48.7 °F 89% 30.23 in 10.0 mi Calm Calm - N/A   Clear
11:15 PM 52.7 °F 49.1 °F 88% 30.23 in 10.0 mi Calm Calm - N/A   Clear
11:35 PM 52.9 °F 49.3 °F 88% 30.23 in 10.0 mi Calm Calm - N/A   Clear
11:54 PM 54.0 °F 50.0 °F 86% 30.23 in 10.0 mi Calm Calm - N/A   Clear